Tracking 23764 objects as of 17-Oct-2021
HD Live streaming from Space Station
objects crossing your sky now

SL-6 R/B(2)

Track SL-6 R/B(2) now!


NORAD ID: 10949
Int'l Code: 1978-055E
Perigee: 1,028.1 km
Apogee: 39,978.1 km
Inclination: 62.8 °
Period: 730.7 minutes
Semi major axis: 26874 km
RCS: 7.3545 m2 (large)
Launch date: June 2, 1978
Source: Commonwealth of Independent States (former USSR) (CIS)
Launch site: PLESETSK MISSILE AND SPACE COMPLEX (PKMTR)

Note: This is a ROCKET BODY
aabbcc
Your satellite tracking list
Your tracking list is empty




NASA's NSSDC Master Catalog

Two Line Element Set (TLE):
1 10949U 78055E   21289.58893801  .00001255  00000-0  00000+0 0  9994
2 10949  62.7636 110.1442 7246764 276.5131  13.0211  1.97061983206593
Source of the keplerian elements: AFSPC